Location: Newark
(35.2672°N, 80.7344°W)
Time: 06:33:19
(UTC+00:00)

Tiros 1 - Pass Details

Date: 26 January 2020
Orbit: 631 x 664 km, 48.4° (Epoch: 19 February)

Event Time Altitude Azimuth Distance (km) Brightness Sun altitude
Rises 23:02:35 0° 310° (NW) 2,973 11.0 -4.2°
Reaches altitude 10° 23:04:59 10° 315° (NW) 2,065 10.1 -4.7°
Maximum altitude 23:09:37 50° 31° (NNE) 841 7.5 -5.6°
Drops below altitude 10° 23:14:16 10° 107° (ESE) 2,072 9.3 -6.5°
Enters shadow 23:16:32 - 113° (ESE) 2,927 10.1 -6.9°
Sets 23:16:41 0° 113° (ESE) 2,984 - -7.0°
